Flag for Germany Weather past 2 weeks in Leimen, Baden-Württemberg, Germany

37 °F

Partly cloudy.

Feels Like: 37 °F
Forecast: 33 / 42 °F
Wind: 1 mph from Southeast

Location: Baden Wurttemberg - Neuostheim

Current Time: Nov 25, 2015 at 10:04:32 PM

Latest Report: Nov 25, 2015 at 9:20 PM

Visibility: 5 mi

Pressure: 29.77 "Hg

Humidity: 100%

Dew point: 37 °F

Location of LeimenLocation

Historic Weather in Leimen — Graph


Leimen temperature yesterday

Maximum temperature yesterday: 37 °F (at 1:20 PM)
Minimum temperature yesterday: 30 °F (at 5:20 AM)
Average temperature yesterday: 35 °F

Past Weeks' High & Low Weather Summary

High61 °F (Nov 18, 5:50 AM)100% (Nov 12, 7:50 PM)30.42 "Hg (Nov 12, 7:50 PM)
Low30 °F (Nov 24, 5:20 AM)51% (Nov 16, 10:20 AM)29.42 "Hg (Nov 21, 11:50 AM)
Average49 °F79%30.05 "Hg
* Reported Nov 10 8:20 PM — Nov 25 8:50 PM, Leimen, Weather by CustomWeather, © 2015

Note: Actual official high and low records may vary slightly from our data, if they occured in-between our weather recording intervals... More about our weather records


Leimen weather history for previous 24 hours

Time TempWeatherWind HumidityBarometerVisibility
8:50 PM
Wed, Nov 25
39 °FPassing clouds.2 mph100%29.77 "Hg6 mi
8:20 PM39 °FLight rain. Passing clouds.2 mph100%29.77 "HgN/A
7:50 PM41 °FLight rain. Mostly cloudy.2 mph93%29.74 "HgN/A
7:20 PM41 °FLight rain. Overcast.5 mph93%29.74 "HgN/A
6:50 PM41 °FLight rain. Partly cloudy.7 mph93%29.74 "HgN/A
6:20 PM41 °FLight rain. Low clouds.2 mph93%29.74 "Hg5 mi
5:50 PM41 °FLight rain. Passing clouds.3 mph93%29.74 "HgN/A
5:20 PM41 °FLight rain. Passing clouds.5 mph93%29.74 "HgN/A
4:50 PM41 °FMostly cloudy.6 mph93%29.74 "HgN/A
4:20 PM41 °FBroken clouds.7 mph93%29.74 "HgN/A
3:50 PM43 °FCloudy.5 mph87%29.74 "HgN/A
3:20 PM43 °FLow clouds.5 mph87%29.74 "HgN/A
2:50 PM43 °FBroken clouds.6 mph87%29.74 "HgN/A
2:20 PM43 °FMore clouds than sun.6 mph87%29.74 "HgN/A
1:50 PM41 °FMostly cloudy.7 mph93%29.74 "HgN/A
1:20 PM41 °FOvercast.6 mph93%29.74 "HgN/A
12:50 PM41 °FMostly cloudy.7 mph93%29.77 "HgN/A
12:20 PM39 °FMostly cloudy.6 mph93%29.77 "HgN/A
11:50 AM39 °FLight rain. Broken clouds.7 mph93%29.77 "HgN/A
11:20 AM39 °FLight rain. Partly sunny.7 mph93%29.77 "HgN/A
10:50 AM37 °FLight rain. Mostly cloudy.7 mph100%29.80 "HgN/A
10:20 AM37 °FLight rain. Broken clouds.7 mph93%29.80 "HgN/A
9:50 AM37 °FLight rain. Partly sunny.7 mph93%29.80 "HgN/A
9:20 AM37 °FPartly sunny.9 mph93%29.80 "HgN/A
8:50 AM37 °FLight rain. Broken clouds.8 mph93%29.80 "HgN/A
7:50 AM36 °FLight rain. Partly cloudy.10 mph93%29.80 "HgN/A
7:20 AM36 °FLight rain. Partly cloudy.8 mph100%29.80 "HgN/A
6:50 AM34 °FLight rain. Partly cloudy.7 mph100%29.80 "HgN/A
6:20 AM36 °FLight rain. Partly cloudy.8 mph93%29.80 "HgN/A
5:50 AM36 °FLight rain. Partly cloudy.7 mph93%29.80 "HgN/A
5:20 AM36 °FLight rain. Partly cloudy.7 mph93%29.80 "HgN/A
Weather by CustomWeather, © 2015

See weather overviewHow to use our weather pages